{"data":{"norad_id":61585,"intl_designator":"2024-187M","name":"STARLINK-11361 [DTC]","alt_names":[],"object_type":"PAYLOAD","status":"ACTIVE","operator":null,"country":"US","launch_date":"2024-10-18","launch_site_code":"AFETR","launch_vehicle":null,"mission":null,"orbit_class":"UNKNOWN","rcs_meters":null,"size_class":null,"mass_kg":null,"dimensions":null,"purposes":["comms"],"wikipedia_slug":null,"has_3d_model":false,"image_url":null,"decayed_at":null,"tle_current":{"epoch":"2026-05-24T16:19:31.406304Z","epoch_age_seconds":99512,"freshness":"FRESH","line1":"1 61585U 24187M   26144.68022461  .00139328  00000+0  11349-2 0  9998","line2":"2 61585  53.1574 281.7796 0001308  44.2335 315.8787 15.69726834 92680","mean_motion":15.69726834,"eccentricity":0.0001308,"inclination_deg":53.1574,"raan_deg":281.7796,"arg_perigee_deg":44.2335,"mean_anomaly_deg":315.8787,"bstar":0.0011349,"rev_number":9268,"period_min":91.735706417821,"perigee_km":358.79727210835,"apogee_km":360.55988466365,"semimajor_km":6737.815578386,"source":"CELESTRAK","updated_at":"2026-05-25T13:38:19.404108Z"}}}